Content
SEND FEEDBACK

Daily
Averages
Monthly
Summary
United States of America

FREDERICK, MARYLAND


Home > North America > United States > Maryland
Elevation: 259 feet     Latitude: 39 25N     Longitude: 077 22W

WEATHER
 
SELECT A DAY
Number of Records: 300,793;   Date Range: 1/3/01 - 7/22/14
 
SHARE

PRINT THIS DATA

[ ← Previous Day ]
WEATHER ALMANAC - JANUARY 31, 2013
[ Next Day → ]
[ °C ]   °F
Weather ElementAverageHighLow
Temperature40.6 °F53.6 °F (12:25 am)28.4 °F (9:25 pm)
Dewpoint29.8 °F53.6 °F (12:25 am)12.2 °F (7:48 pm)
Humidity67.4 %100 % (12:25 am)45 % (3:46 pm)
Barometer29.60 in29.93 in (7:48 pm)29.18 in (3:00 am)
Wind Speed15.2 mph28.8 mph (3:20 am)
Wind Gust44.9 mph (4:05 am)
Weather ElementAverage
Visibility9.2 mi
Wind DirectionWSW (257.3 °)

Weather ElementTotal
Precipitation0.37 in
Heating Degree Days24 (Base 65)
Averaged from 41 records on January 31, 2013
WEATHER CONDITIONS BREAKOUT
WIND DIRECTION BREAKOUT
WEATHER BY HOUR - JANUARY 31, 2013
[ °C ]   °F
Local TimeTemperatureDewpointHumidityBarometerVisibilityWind DirectionWind SpeedGust SpeedPrecipitationEventsConditions
12:25 AM53.6 °F53.6 °F100 %29.24 in2.5 miWNW (300°)5.8 mphRainHeavy Rain
12:45 AM53.6 °F53.6 °F100 %29.25 in1.8 miWest (280°)8.1 mph0.14 inRainHeavy Rain
1:05 AM53.6 °F53.6 °F100 %29.21 in1.8 miCalm0.05 inRainHeavy Rain
1:30 AM53.6 °F53.6 °F100 %29.26 in4.0 miWest (270°)10.4 mph0.06 inRainRain
1:50 AM53.6 °F53.6 °F100 %29.24 in10.0 miSouth (190°)3.5 mph0.09 inRainLight Rain
2:10 AM53.6 °F53.6 °F100 %29.21 in10.0 miSouth (170°)3.5 mphRainLight Rain
2:30 AM53.6 °F53.6 °F100 %29.22 in10.0 miWSW (240°)5.8 mph0.01 inRainLight Rain
3:00 AM53.6 °F53.6 °F100 %29.18 in10.0 miSW (230°)4.6 mphOvercast
3:20 AM53.6 °F53.6 °F100 %29.22 in10.0 miNW (310°)28.8 mph40.3 mphRainRain
3:40 AM51.8 °F48.2 °F88 %29.23 in10.0 miWest (280°)18.4 mph25.3 mph0.02 inOvercast
4:05 AM50.0 °F41.0 °F71 %29.31 in10.0 miWest (280°)24.2 mph44.9 mphOvercast
4:25 AM46.4 °F37.4 °F71 %29.31 in10.0 miWest (280°)21.9 mph35.7 mphOvercast
4:45 AM46.4 °F37.4 °F71 %29.33 in10.0 miWest (270°)23.0 mph33.4 mphOvercast
5:05 AM44.6 °F35.6 °F71 %29.35 in10.0 miWest (260°)17.3 mph24.2 mphMostly Cloudy
5:30 AM44.6 °F33.8 °F66 %29.37 in10.0 miWest (270°)19.6 mph31.1 mphOvercast
5:50 AM44.6 °F33.8 °F66 %29.41 in10.0 miWest (270°)21.9 mph26.5 mphOvercast
6:47 AM41.0 °F28.4 °F61 %29.48 in10.0 miWNW (290°)25.3 mph40.3 mphMostly Cloudy
7:50 AM39.2 °F26.6 °F61 %29.55 in10.0 miWest (280°)28.8 mph35.7 mphMostly Cloudy
8:50 AM41.0 °F24.8 °F53 %29.58 in10.0 miWest (280°)20.7 mph28.8 mphClear
9:50 AM41.0 °F26.6 °F57 %29.63 in10.0 miWest (280°)20.7 mph33.4 mphScattered Clouds
10:55 AM41.0 °F39.2 °F93 %29.67 in10.0 miWest (280°)25.3 mph40.3 mphScattered Clouds
11:50 AM41.0 °F23.0 °F49 %29.69 in10.0 miWest (280°)19.6 mph36.8 mphMostly Cloudy
12:50 PM39.2 °F26.6 °F61 %29.72 in7.0 miWest (280°)25.3 mph39.1 mph
1:55 PM39.2 °F23.0 °F52 %29.73 in10.0 miWest (270°)27.6 mph39.1 mphMostly Cloudy
2:48 PM37.4 °F19.4 °F48 %29.76 in10.0 miWest (260°)23.0 mph40.3 mphMostly Cloudy
3:46 PM37.4 °F17.6 °F45 %29.78 in10.0 miWest (270°)18.4 mph34.5 mphOvercast
4:55 PM35.6 °F19.4 °F52 %29.81 in10.0 miWest (270°)11.5 mph18.4 mphMostly Cloudy
6:45 PM32.0 °F15.8 °F51 %29.91 in10.0 miWest (270°)19.6 mph28.8 mphOvercast
7:48 PM30.2 °F12.2 °F47 %29.93 in10.0 miWest (270°)17.3 mph23.0 mphMostly Cloudy
8:00 PM30.2 °F14.0 °F51 %29.92 in10.0 miWest (270°)10.4 mph16.1 mphScattered Clouds
8:20 PM30.2 °F12.2 °F47 %29.92 in10.0 miWest (260°)12.7 mph17.3 mphClear
8:40 PM30.2 °F12.2 °F47 %29.92 in10.0 miWSW (250°)10.4 mphClear
9:05 PM30.2 °F12.2 °F47 %29.91 in10.0 miWest (260°)8.1 mphClear
9:25 PM28.4 °F14.0 °F55 %29.92 in10.0 miWest (260°)10.4 mphClear
9:45 PM30.2 °F14.0 °F51 %29.91 in10.0 miWSW (250°)6.9 mphClear
10:05 PM28.4 °F14.0 °F55 %29.92 in10.0 miWSW (250°)10.4 mphClear
10:30 PM30.2 °F14.0 °F51 %29.93 in10.0 miWest (260°)12.7 mph18.4 mphMostly Cloudy
10:50 PM30.2 °F15.8 °F55 %29.92 in10.0 miWest (260°)11.5 mphOvercast
11:10 PM30.2 °F15.8 °F55 %29.93 in10.0 miWSW (250°)11.5 mph23.0 mphScattered Clouds
11:35 PM30.2 °F15.8 °F55 %29.92 in10.0 miWest (260°)10.4 mphClear
11:55 PM30.2 °F17.6 °F60 %29.92 in10.0 miWSW (240°)9.2 mphScattered Clouds
Hourly data recorded from KFDK, located miles away from Frederick, Maryland







STORIES FROM OUR PARTNERS